Погода в Сиваках

Россия / Амурская область     52°38′05″N   126°44′55″E
темп.,
°C
ветер,
м/с
пор.,
м/с
влажн.,
%
обл.,
%
осадки,
мм/ч
давл.,
гПа
погр.,
м
17 мая, пн
пн1700:00+10ююз4105548 0.0 996138
03:00+10сз5155698 0.0 996398
06:00+9зсз6116672 0.0 998368
09:00+12зсз810425 0.0 9991136
12:00+14зсз8102342 0.0 10002018
15:00+16зсз791972 0.0 9992288
18:00+14зсз4624100 0.0 9991813
21:00+11вюв2236100 0.0 99929
18 мая, вт
вт1800:00+8юв245434 0.0 99991
03:00+6ю377248 0.0 998186
06:00+7ююв497599 0.0 997514
09:00+8юз61082100 0.2 9971338
12:00+12зсз9124245 0.1 9982091
15:00+14зсз91323100 0.1 9983436
18:00+9зсз913465 0.0 10021878
21:00+4ссз35650 0.0 100577
19 мая, ср
ср1900:00+1сз347297 0.0 100652
03:00+2зсз2270100 0.0 100626
06:00+3ююв126599 0.1 1007115
09:00+8ю454672 0.1 1006915
12:00+13юз473078 0.0 10042728
15:00+14з3525100 0.0 10022729
18:00+13юз2534100 0.0 10021946
21:00+9вюв3467100 0.1 1002115
20 мая, чт
чт2000:00+7юв2593100 1.4 1002284
03:00+7ю1297100 1.4 100130
06:00+8ю129435 0.0 100188
09:00+12юз3478100 0.1 1001742
12:00+15зсз7758100 0.7 10011667
15:00+14ссз7943100 0.8 10041905
18:00+14с6735100 0.0 10061680
21:00+8ссв41154100 0.0 1009325
21 мая, пт
пт2100:00+7ссв125379 0.0 101024
03:00+5сз345697 0.0 101256
06:00+5всв2356100 0.0 1011114
09:00+11вюв4537100 0.0 1010788
12:00+15вюв572896 0.0 10071226
15:00+18юв682985 0.0 10041565
18:00+17юв463518 0.0 10021247
21:00+12в5135084 0.0 1001225